Weather in Botlih

Russia / Republic of Dagestan     42°40′01″N   46°12′39″E
temp.,
°C
wind,
m/s
gust,
m/s
humid.,
%
clouds,
%
prec.,
mm/h
press.,
hPa
HPBL,
m
16 june, wed
wed1600:00+12ssw11840 0.0 101312
03:00+12ssw12820 0.0 101415
06:00+15sse11730 0.0 101375
09:00+20se23540 0.0 1011444
12:00+25ese23450 0.0 10091217
15:00+25e33453 0.0 10081553
18:00+23ene22640 0.1 1008180
21:00+16ssw22710 0.2 101122
17 june, thu
thu1700:00+14sw23640 0.0 101025
03:00+13sw23600 0.0 101026
06:00+15sw23590 0.0 100961
09:00+23ssw23350 0.0 1007495
12:00+26nnw23330 0.0 10071608
15:00+21n446932 0.6 1010651
18:00+17nnw338852 2.8 1014242
21:00+15nw2393100 3.4 1017128
18 june, fri
fri1800:00+14nnw229597 0.3 1018179
03:00+13nnw239595 0.4 1018150
06:00+13nw2188100 0.3 1019240
09:00+15wnw0179100 0.6 1018440
12:00+18nne227161 0.4 1017904
15:00+17n337979 2.1 1018596
18:00+16n118085 1.9 1019420
21:00+14ese128932 2.2 102046
19 june, sat
sat1900:00+12ese11920 0.0 102015
03:00+11se11930 0.0 102019
06:00+14se12844 0.0 1020105
09:00+19se22585 0.0 1017486
12:00+23e33445 0.0 10151200
15:00+24e33462 0.0 10141333
18:00+22e34642 0.0 1014181
21:00+16sse11790 0.0 101720
20 june, sun
sun2000:00+14ssw226424 0.0 101720
03:00+13ssw125221 0.0 101719
06:00+15ssw22540 0.0 101749
09:00+22sse22380 0.0 1015326
12:00+26ese22320 0.0 1013957
15:00+27ese22320 0.0 10121477
18:00+25e12560 0.0 101355
21:00+17ssw22640 0.0 101616